TimeCDT,TemperatureF,Dew PointF,Humidity,Sea Level PressureIn,VisibilityMPH,Wind Direction,Wind SpeedMPH,Gust SpeedMPH,PrecipitationIn,Events,Conditions,WindDirDegrees,DateUTC
12:13 AM,21.2,19.4,93,30.26,10.0,NW,4.6,-,N/A,,Clear,320,2013-04-02 05:13:00
12:32 AM,21.2,19.4,93,30.26,10.0,Calm,Calm,-,N/A,,Clear,0,2013-04-02 05:32:00
12:52 AM,21.2,19.4,93,30.26,10.0,West,3.5,-,N/A,,Clear,280,2013-04-02 05:52:00
1:13 AM,21.2,19.4,93,30.27,10.0,Calm,Calm,-,N/A,,Clear,0,2013-04-02 06:13:00
1:33 AM,21.2,19.4,93,30.27,10.0,West,3.5,-,N/A,,Clear,280,2013-04-02 06:33:00
1:52 AM,21.2,19.4,93,30.27,10.0,West,3.5,-,N/A,,Clear,280,2013-04-02 06:52:00
2:13 AM,19.4,17.6,93,30.26,10.0,WNW,3.5,-,N/A,,Clear,290,2013-04-02 07:13:00
2:33 AM,19.4,17.6,93,30.26,10.0,Calm,Calm,-,N/A,,Clear,0,2013-04-02 07:33:00
2:52 AM,19.4,19.4,100,30.26,10.0,WSW,3.5,-,N/A,,Clear,250,2013-04-02 07:52:00
3:13 AM,19.4,17.6,93,30.26,10.0,West,3.5,-,N/A,,Clear,270,2013-04-02 08:13:00
3:33 AM,19.4,17.6,93,30.26,10.0,Calm,Calm,-,N/A,,Clear,0,2013-04-02 08:33:00
3:52 AM,19.4,17.6,93,30.26,10.0,Calm,Calm,-,N/A,,Clear,0,2013-04-02 08:52:00
4:13 AM,19.4,17.6,93,30.26,10.0,Calm,Calm,-,N/A,,Clear,0,2013-04-02 09:13:00
4:33 AM,19.4,17.6,93,30.26,10.0,Calm,Calm,-,N/A,,Clear,0,2013-04-02 09:33:00
4:52 AM,19.4,17.6,93,30.26,10.0,Calm,Calm,-,N/A,,Clear,0,2013-04-02 09:52:00
5:13 AM,19.4,17.6,93,30.26,10.0,Calm,Calm,-,N/A,,Clear,0,2013-04-02 10:13:00
5:33 AM,19.4,17.6,93,30.26,10.0,Calm,Calm,-,N/A,,Clear,0,2013-04-02 10:33:00
5:52 AM,17.6,15.8,93,30.27,10.0,Calm,Calm,-,N/A,,Clear,0,2013-04-02 10:52:00
6:12 AM,17.6,17.6,100,30.27,10.0,Calm,Calm,-,N/A,,Clear,0,2013-04-02 11:12:00
6:33 AM,19.4,17.6,93,30.28,10.0,Calm,Calm,-,N/A,,Clear,0,2013-04-02 11:33:00
6:52 AM,19.4,17.6,93,30.28,10.0,Calm,Calm,-,N/A,,Clear,0,2013-04-02 11:52:00
7:12 AM,19.4,17.6,93,30.29,10.0,Calm,Calm,-,N/A,,Clear,0,2013-04-02 12:12:00
7:33 AM,19.4,17.6,93,30.30,10.0,Calm,Calm,-,N/A,,Clear,0,2013-04-02 12:33:00
7:52 AM,19.4,19.4,100,30.30,10.0,Calm,Calm,-,N/A,,Clear,0,2013-04-02 12:52:00
8:12 AM,23.0,19.4,86,30.30,10.0,Calm,Calm,-,N/A,,Clear,0,2013-04-02 13:12:00
8:33 AM,24.8,21.2,86,30.30,10.0,Calm,Calm,-,N/A,,Clear,0,2013-04-02 13:33:00
8:52 AM,26.6,21.2,80,30.31,10.0,Calm,Calm,-,N/A,,Clear,0,2013-04-02 13:52:00
9:32 AM,28.4,21.2,74,30.31,10.0,Calm,Calm,-,N/A,,Clear,0,2013-04-02 14:32:00
9:52 AM,30.2,19.4,64,30.31,10.0,Calm,Calm,-,N/A,,Clear,0,2013-04-02 14:52:00
10:13 AM,30.2,19.4,64,30.31,10.0,Calm,Calm,-,N/A,,Clear,0,2013-04-02 15:13:00
10:32 AM,32.0,19.4,60,30.31,10.0,Calm,Calm,-,N/A,,Clear,0,2013-04-02 15:32:00
10:52 AM,32.0,19.4,60,30.31,10.0,Calm,Calm,-,N/A,,Clear,0,2013-04-02 15:52:00
11:13 AM,33.8,19.4,56,30.32,10.0,NW,8.1,-,N/A,,Clear,320,2013-04-02 16:13:00
11:32 AM,33.8,19.4,56,30.32,10.0,NNW,6.9,-,N/A,,Clear,340,2013-04-02 16:32:00
11:52 AM,33.8,19.4,56,30.32,10.0,NNW,4.6,-,N/A,,Clear,330,2013-04-02 16:52:00
12:13 PM,35.6,17.6,48,30.32,10.0,NW,8.1,-,N/A,,Clear,310,2013-04-02 17:13:00
12:32 PM,35.6,19.4,52,30.32,10.0,North,3.5,-,N/A,,Clear,360,2013-04-02 17:32:00
12:52 PM,35.6,19.4,52,30.31,10.0,North,4.6,-,N/A,,Clear,350,2013-04-02 17:52:00
1:13 PM,35.6,19.4,52,30.31,10.0,NW,10.4,-,N/A,,Clear,320,2013-04-02 18:13:00
1:32 PM,37.4,19.4,48,30.31,10.0,Calm,Calm,-,N/A,,Clear,0,2013-04-02 18:32:00
1:52 PM,37.4,21.2,52,30.30,10.0,NW,10.4,-,N/A,,Clear,320,2013-04-02 18:52:00
2:13 PM,39.2,21.2,49,30.30,10.0,NW,9.2,-,N/A,,Clear,310,2013-04-02 19:13:00
2:32 PM,37.4,21.2,52,30.29,10.0,Calm,Calm,-,N/A,,Scattered Clouds,0,2013-04-02 19:32:00
2:52 PM,39.2,21.2,49,30.30,10.0,NNW,9.2,-,N/A,,Scattered Clouds,330,2013-04-02 19:52:00
3:13 PM,39.2,21.2,49,30.29,10.0,NW,11.5,-,N/A,,Scattered Clouds,310,2013-04-02 20:13:00
3:32 PM,39.2,21.2,49,30.29,10.0,NNW,9.2,16.1,N/A,,Scattered Clouds,330,2013-04-02 20:32:00
3:52 PM,39.2,21.2,49,30.29,10.0,NNW,13.8,18.4,N/A,,Scattered Clouds,340,2013-04-02 20:52:00
4:12 PM,37.4,21.2,52,30.29,10.0,Calm,Calm,-,N/A,,Scattered Clouds,0,2013-04-02 21:12:00
4:32 PM,37.4,21.2,52,30.29,10.0,North,9.2,17.3,N/A,,Mostly Cloudy,350,2013-04-02 21:32:00
4:48 PM,39.2,21.2,49,30.30,10.0,North,4.6,-,N/A,,Mostly Cloudy,360,2013-04-02 21:48:00
5:20 PM,39.2,23.0,52,30.29,10.0,North,12.7,16.1,N/A,,Mostly Cloudy,350,2013-04-02 22:20:00
5:32 PM,39.2,23.0,52,30.29,10.0,North,6.9,-,N/A,,Mostly Cloudy,10,2013-04-02 22:32:00
5:53 PM,37.4,21.2,52,30.29,10.0,North,11.5,-,N/A,,Scattered Clouds,350,2013-04-02 22:53:00
6:13 PM,37.4,21.2,52,30.30,10.0,North,8.1,-,N/A,,Clear,360,2013-04-02 23:13:00
6:32 PM,37.4,21.2,52,30.30,10.0,North,10.4,-,N/A,,Clear,10,2013-04-02 23:32:00
6:53 PM,35.6,21.2,56,30.30,10.0,NNE,6.9,-,N/A,,Clear,20,2013-04-02 23:53:00
7:13 PM,35.6,21.2,56,30.30,10.0,NNE,6.9,-,N/A,,Clear,20,2013-04-03 00:13:00
7:32 PM,33.8,21.2,60,30.30,10.0,NNE,4.6,-,N/A,,Clear,30,2013-04-03 00:32:00
7:53 PM,30.2,21.2,69,30.30,10.0,NNE,3.5,-,N/A,,Clear,20,2013-04-03 00:53:00
8:13 PM,32.0,19.4,60,30.30,10.0,NNE,6.9,-,N/A,,Clear,30,2013-04-03 01:13:00
8:32 PM,-9999,-9999,N/A,30.30,10.0,Calm,Calm,-,N/A,,Clear,0,2013-04-03 01:32:00
8:53 PM,30.2,19.4,64,30.31,10.0,NE,3.5,-,N/A,,Clear,40,2013-04-03 01:53:00
9:13 PM,28.4,21.2,74,30.31,10.0,Calm,Calm,-,N/A,,Clear,0,2013-04-03 02:13:00
9:32 PM,28.4,19.4,69,30.31,10.0,NE,5.8,-,N/A,,Clear,40,2013-04-03 02:32:00
9:53 PM,26.6,19.4,74,30.32,-9999.0,Calm,Calm,-,N/A,,Clear,0,2013-04-03 02:53:00
10:12 PM,26.6,21.2,80,30.32,10.0,ENE,4.6,-,N/A,,Clear,60,2013-04-03 03:12:00
10:32 PM,24.8,21.2,86,30.32,10.0,NE,3.5,-,N/A,,Clear,50,2013-04-03 03:32:00
10:52 PM,26.6,21.2,80,30.33,10.0,Calm,Calm,-,N/A,,Clear,0,2013-04-03 03:52:00
11:12 PM,24.8,21.2,86,30.32,10.0,Calm,Calm,-,N/A,,Clear,0,2013-04-03 04:12:00
11:33 PM,26.6,21.2,80,30.32,10.0,Calm,Calm,-,N/A,,Clear,0,2013-04-03 04:33:00
11:52 PM,32.0,19.4,60,30.33,10.0,Calm,Calm,-,N/A,,Clear,0,2013-04-03 04:52:00